Location: Pinawa
(50.1500°N, 95.8830°W)
Time: 18:14:11
(UTC-06:00)

Daily predictions for brighter satellites

Satellite Brightness Start Highest point End
(mag) Time Altitude Azimuth Time Altitude Azimuth Time Altitude Azimuth
Cosmos 1269 Rocket 4.0 16:53:52 10° NNW 16:59:11 65° ENE 17:04:28 10° SE
CZ-3B DEB 4.2 16:58:06 10° ESE 17:00:16 12° E 17:03:10 10° ENE
Cosmos 1125 Rocket 4.3 16:55:36 10° SSE 17:00:18 33° ESE 17:05:02 10° NE
USA 161 4.0 16:59:05 10° NNW 17:00:58 18° WNW 17:02:56 10° WSW
Cosmos 1937 Rocket 3.6 16:56:05 10° SSW 17:01:23 85° WNW 17:06:40 10° NNE
Meteor 1-10 Rocket 4.4 16:56:41 10° S 17:02:36 84° E 17:08:36 10° NNE
CZ-4 R/B 1.8 16:58:52 10° SE 17:02:51 44° ENE 17:06:49 10° N
ATLAS 2AS CENTAUR R/B 3.2 16:57:08 10° NW 17:05:11 56° NE 17:12:53 10° ESE
SL-8 Rocket 4.5 17:00:57 10° N 17:06:40 37° ENE 17:12:20 10° SE
MTI 3.8 17:05:03 10° NNE 17:08:24 87° E 17:11:42 10° SSW
CSL-04 Debris 4.3 17:03:15 10° SSE 17:08:40 85° WSW 17:14:07 10° NNW
Cosmos 2251 Rocket 4.3 17:04:17 10° N 17:09:04 31° NE 17:13:48 10° ESE
Cosmos 1633 2.5 17:07:30 10° N 17:11:06 67° ENE 17:14:40 10° SSE
CSL-04 Rocket 4.1 17:05:44 10° S 17:11:11 72° WSW 17:16:44 10° NNW
Cosmos 1300 Rocket 3.6 17:06:49 10° N 17:11:12 86° W 17:15:31 10° S
Meteor 1-27 Rocket 3.8 17:08:55 10° S 17:14:42 66° E 17:20:24 10° NNE
YAOGAN 1 2.9 17:10:55 10° SE 17:15:01 43° ENE 17:19:09 10° N
Abrixas 3.2 17:12:55 10° WSW 17:15:45 44° SSE 17:18:37 10° E
Cosmos 1975 4.5 17:14:04 10° NNE 17:16:29 15° ENE 17:18:52 10° E
Cosmos 2218 Rocket 4.5 17:10:39 10° N 17:16:31 38° ENE 17:22:18 10° SE
ERBS 3.1 17:14:27 10° W 17:17:44 43° NNW 17:20:47 12° NE
ASTEX 1 3.7 17:14:57 10° N 17:19:58 75° W 17:24:57 10° SSW
Cosmos 2181 Rocket 4.3 17:15:42 10° SSE 17:21:43 47° E 17:27:50 10° NNE
Cosmos 1844 Rocket 3.8 17:19:00 10° SSE 17:23:25 25° ESE 17:27:30 12° NE
MOS 1 4.3 17:19:27 10° SSE 17:25:04 70° ENE 17:30:43 10° NNW
SL-27 R/B 3.2 17:23:07 10° N 17:26:30 33° ENE 17:29:51 10° SE
Cosmos 1378 Rocket 3.5 17:22:29 10° S 17:26:43 60° E 17:30:59 10° NNE
Cosmos 1782 4.0 17:25:13 10° SSW 17:29:04 43° WNW 17:32:58 10° N
Cosmos 1455 Rocket 3.8 17:28:58 10° N 17:32:54 31° ENE 17:36:48 10° SE
GEOS 3 Rocket 3.5 17:29:07 10° SE 17:34:11 67° NE 17:39:18 10° NW
Cosmos 2341 Rocket 4.0 17:31:00 10° N 17:37:16 89° W 17:43:29 10° S
ISS -1.0 17:36:03 10° SSE 17:37:34 13° SE 17:38:49 11° ESE
Cosmos 1295 Rocket 4.4 17:31:55 10° N 17:38:07 74° E 17:44:11 10° SSE
Nadezhda 1 Rocket 4.3 17:32:27 10° SSW 17:38:29 67° WNW 17:44:38 10° N
Cosmos 1048 Rocket 4.4 17:35:17 10° NNW 17:40:33 68° WSW 17:45:51 10° SSE
COSMOS 2406 3.4 17:36:38 10° NNW 17:42:22 82° WSW 17:48:06 10° SSE
Cosmos 158 Rocket 4.1 17:38:06 10° NNW 17:43:33 88° WSW 17:48:51 10° SSE
CORIOLIS 4.1 17:38:30 10° SSE 17:43:54 80° ENE 17:49:20 10° NNW
SJ-7 4.4 17:40:03 10° SSE 17:44:16 78° ENE 17:48:32 10° N
SL-16 R/B 4.4 17:43:40 10° N 17:48:32 25° NW 17:53:23 10° WSW
Cosmos 2278 Rocket 3.5 17:45:10 10° SE 17:48:57 19° E 17:50:04 18° E
BREEZE-M DEB (TANK) 4.2 17:39:33 10° WSW 17:49:37 79° S 17:52:05 21° E
CZ-4 R/B 4.3 17:47:03 10° SSE 17:51:11 74° ENE 17:55:22 10° N
Meteor 1-5 Rocket 4.1 17:47:37 10° NNW 17:53:01 90° W 17:58:31 10° S
Cosmos 1484 Rocket 2.8 17:54:27 10° SSE 17:58:06 49° ENE 18:01:43 10° N
CZ-2C R/B 2.8 17:53:31 10° S 17:58:28 72° WSW 18:03:36 10° NNW
SPOT 3 Rocket 4.0 17:54:28 10° S 17:59:38 67° WSW 18:04:49 10° NNW
MONITOR-E 4.1 17:57:17 10° SSE 18:00:27 65° ENE 18:03:38 10° N
ATLAS CENTAUR R/B 3.5 17:57:46 10° WNW 18:01:22 21° NNW 18:04:28 11° NNE
Genesis I 3.9 18:00:47 10° NNW 18:04:25 34° NE 18:05:17 30° ENE
CRYOSAT 2 4.4 18:00:15 10° N 18:05:12 88° W 18:10:06 10° S
Cosmos 1238 Rocket 3.0 18:02:34 10° SSE 18:04:44 30° ESE 18:04:44 30° ESE
COSMOS 2487 4.2 18:02:22 10° N 18:03:58 19° NNE 18:03:58 19° NNE
Cosmos 2082 Rocket 2.8 18:03:34 10° NNW 18:08:41 33° NE 18:10:50 25° E
Cosmos 1536 4.5 18:09:17 10° NNW 18:13:02 37° W 18:16:48 10° SSW
IDEFIX/ARIANE 42P 3.3 18:08:48 10° S 18:13:54 56° W 18:19:02 10° NNW
COSMOS 2441 4.4 18:11:07 10° SSE 18:16:00 87° WSW 18:20:56 10° NNW
Cosmos 1833 Rocket 3.4 18:11:46 10° NNW 18:16:53 33° NE 18:18:13 30° ENE
Cosmos 864 Rocket 4.4 18:11:24 10° N 18:17:41 81° E 18:24:00 10° SSE
Okean 1 3.9 18:14:21 10° SSE 18:17:54 36° E 18:17:54 36° E
USA 32 3.9 18:13:08 10° S 18:18:22 85° E 18:23:38 10° N
COSMO-SKYMED 1 2.8 18:16:32 28° NE 18:18:29 47° E 18:22:40 10° S
Cosmos 1544 Rocket 3.7 18:16:33 10° NNW 18:21:00 76° W 18:25:27 10° S
Spot 2 Rocket 4.3 18:21:44 30° NE 18:21:44 30° NE 18:25:54 10° N
Cosmos 1500 3.3 18:20:56 10° N 18:28:53 - SSE 18:24:30 49° ENE
SL-24 DEB 4.2 18:20:51 10° N 18:25:38 71° E 18:30:21 10° S
APEX 4.4 18:21:22 10° SW 18:27:48 70° WNW 18:31:21 21° NNE
Cosmos 1975 Rocket 3.8 18:24:17 10° SSW 18:28:30 52° WNW 18:32:45 10° N
Meteor 1-18 Rocket 4.2 18:23:24 10° S 18:28:58 66° E 18:34:41 10° NNE
Cosmos 372 Rocket 4.2 18:27:20 10° SSW 18:32:35 70° WNW 18:36:38 17° NNE
USA 234 3.3 18:29:58 28° NE 18:33:44 74° NNW 18:40:15 10° WSW
Thor Agena Rocket 4.1 18:29:05 10° N 18:34:09 57° WNW 18:39:15 10° SW
MSX 4.5 18:29:30 10° S 18:35:09 57° W 18:40:51 10° NNW
CZ-4 R/B 4.1 18:34:50 10° SW 18:38:06 22° W 18:41:21 10° NW
Cosmos 2263 Rocket 3.7 18:35:34 10° WSW 18:40:32 31° NW 18:45:08 12° NNE
NOSS 3-4 (A) 4.1 18:34:11 10° NW 18:40:42 45° NNE 18:42:42 37° ENE
NOSS 3-4 (C) 4.1 18:34:18 10° NW 18:40:48 45° NNE 18:42:47 37° ENE
METEOR-M 4.0 18:35:37 10° SSE 18:40:52 62° ENE 18:46:10 10° N
NOAA 12 3.9 18:38:28 10° SSE 18:43:44 76° ENE 18:49:01 10° NNW
Cosmos 494 Rocket 4.4 18:39:25 10° NNW 18:44:36 64° WSW 18:49:47 10° S
Cosmos 1536 Rocket 3.4 18:40:27 10° S 18:44:54 80° E 18:46:25 41° NNE
Meteor 2-14 Rocket 4.4 18:39:38 10° N 18:45:45 61° ENE 18:51:49 10° SSE
Cosmos 1812 2.7 18:42:46 10° SSW 18:46:38 81° W 18:47:21 57° N
SKYMED 3 4.5 18:46:53 37° NNE 18:48:35 88° WNW 18:52:56 10° SSW
Abrixas 4.0 18:48:17 10° W 18:50:12 35° WSW 18:50:12 35° WSW
Cosmos 2251 Rocket 4.4 18:46:25 10° NNW 18:51:36 50° WSW 18:56:44 10° S
NOSS 3-3 (A) 4.4 18:46:06 10° S 18:51:56 43° ESE 18:52:24 42° ESE
NOSS 3-3 (C) 4.4 18:46:12 10° S 18:52:02 43° ESE 18:52:28 42° ESE
Cosmos 1975 3.2 18:49:24 10° NNW 18:53:29 64° W 18:57:29 10° S
ERBS 4.3 18:52:12 10° WNW 18:54:10 22° NNW 18:54:10 22° NNW
ATLAS 2AS CENTAUR R/B 3.7 18:48:31 10° NW 18:56:22 54° WSW 19:03:45 10° SSE
Resurs 01 Rocket 3.6 19:00:13 17° N 19:00:13 17° N 19:01:16 10° N
FALCON 9 R/B 4.4 18:41:21 10° SW 18:57:37 29° S 19:01:52 19° SE
ALOS 4.3 19:02:21 16° N 19:02:21 16° N 19:03:18 10° N
Meteor 2-21 Rocket 4.3 18:54:00 10° N 19:00:15 82° E 19:06:27 10° SSE
SKYMED 2 4.0 19:05:09 38° N 19:06:37 59° WNW 19:10:53 10° SSW
Meteor 2-16 Rocket 4.3 19:00:38 10° N 19:06:45 77° E 19:12:49 10° SSE
Cosmos 1844 Rocket 3.0 19:01:18 10° SW 19:06:52 64° WNW 19:09:11 35° NNE
Timation 2 Rocket 4.1 19:02:55 10° NNW 19:09:44 88° ENE 19:13:13 32° SSE
Cosmos 1535 Rocket 4.4 19:04:23 10° N 19:10:46 72° ENE 19:17:02 10° SSE
ISS -0.9 19:10:16 10° SW 19:11:30 21° SW 19:11:30 21° SW
Cosmos 1844 3.7 19:08:29 10° SW 19:14:02 73° WNW 19:15:25 51° N
Cosmos 1934 Rocket 4.0 19:11:50 10° N 19:17:01 58° NNE 19:17:01 58° NNE
FengYun 1-2 T 4.1 19:22:29 84° ESE 19:22:37 85° ENE 19:28:20 10° NNW
Cosmos 2239 Rocket 4.4 19:23:37 10° N 19:29:54 84° W 19:36:05 10° S
CZ-3B DEB 2.9 19:27:00 10° SW 19:32:05 83° SE 19:34:10 57° ENE
Cosmos 2278 Rocket 2.2 19:26:40 10° SSW 19:31:58 77° WSW 19:31:58 77° WSW
Meteor 1-13 Rocket 4.4 19:28:17 10° SSW 19:32:59 64° SSW 19:32:59 64° SSW
CZ-3A R/B 4.4 19:27:39 10° W 19:34:53 77° N 19:49:44 36° ENE
Cosmos 1821 Rocket 3.9 19:31:34 10° NNW 19:37:42 77° W 19:39:23 50° S
ATLAS CENTAUR R/B 4.3 19:40:11 10° NNW 19:40:46 11° NNW 19:40:46 11° NNW
Cosmos 2082 Rocket 2.8 19:47:32 10° NW 19:52:45 54° W 19:52:45 54° W
Cosmos 1833 Rocket 3.5 19:55:36 10° NW 19:59:57 46° WNW 19:59:57 46° WNW
USA 234 3.9 20:17:19 47° NNW 20:17:19 47° NNW 20:22:37 10° WNW
NOSS 3-4 (A) 4.5 20:25:10 10° NW 20:30:10 49° WNW 20:30:10 49° WNW
NOSS 3-4 (C) 4.5 20:25:16 10° NW 20:30:15 49° WNW 20:30:15 49° WNW
